EHI
4 3 2 2 1 0 0 0 0 0 0 0 0 0 0 0 0 0 1 2 3 3 4 5 6 6 4 4 5 6 5 3 3 4 4 3 2 3 4 5 5 6 6 6 4 3 4 6 6
2 1 1 1 1 0 0 0 0 0 0 0 0 0 0 0 0 0 1 2 3 3 3 4 6 6 4 4 6 6 4 3 3 4 4 3 1 2 3 4 4 4 5 5 4 3 4 4 5
2 1 1 1 1 1 0 0 0 1 1 0 0 0 0 0 0 0 1 2 3 3 3 5 7 7 5 5 7 6 4 3 3 3 3 2 1 2 3 4 4 4 4 4 4 4 3 3 2
2 3 2 2 2 1 0 0 0 1 1 0 0 0 0 1 2 2 1 2 3 3 4 6 9 8 6 5 6 7 5 4 3 3 2 2 2 4 5 5 5 5 4 4 4 3 3 3 2
3 3 2 1 1 0 0 0 1 2 2 1 0 0 0 2 5 4 2 1 2 3 4 7 10 9 7 6 7 7 5 4 3 3 3 3 5 6 6 6 6 6 5 4 3 3 3 3 3
5 4 2 0 0 0 0 0 1 3 4 2 0 0 0 3 5 5 2 0 1 3 4 6 9 10 8 7 7 7 6 5 4 4 4 5 7 7 7 7 7 6 5 4 3 3 3 4 4
5 3 1 0 0 0 0 0 1 3 3 2 1 0 0 2 4 3 1 0 1 3 4 5 8 9 8 6 7 8 7 7 7 6 6 6 7 8 8 8 7 6 5 4 4 4 5 6 6
2 1 0 0 0 0 0 0 0 1 2 1 1 0 0 1 3 3 1 1 2 3 4 5 6 6 5 5 7 9 9 8 8 8 8 6 5 6 7 6 5 5 4 4 4 6 8 9 9
2 2 2 1 1 1 0 0 0 1 2 2 2 2 2 3 5 5 3 2 2 3 4 5 5 4 3 4 5 7 8 8 7 6 6 4 2 2 3 4 4 3 2 2 5 8 10 9 8
4 5 4 2 2 1 1 1 1 2 3 4 5 6 5 5 7 7 6 3 1 2 3 4 4 3 3 3 4 4 4 4 3 2 2 1 0 0 1 2 2 1 0 1 4 7 7 5 3
5 6 4 2 1 1 2 2 2 2 4 7 9 9 8 7 8 9 8 4 1 1 2 3 3 3 3 3 3 2 1 1 1 0 0 0 0 0 0 0 0 0 0 0 1 2 2 1 0
5 4 2 1 0 1 2 2 2 3 6 9 11 11 9 7 9 10 8 5 3 2 1 2 3 3 3 3 3 1 0 0 0 0 0 0 0 0 0 0 0 0 0 0 0 0 0 0 0
3 2 1 0 1 1 2 2 2 3 7 10 10 9 8 8 8 10 8 5 4 2 0 1 2 1 1 2 2 1 0 0 0 1 0 0 0 0 0 0 0 0 1 0 0 0 0 0 0
1 1 0 0 1 2 2 1 2 5 8 9 9 8 7 8 8 9 8 5 3 1 0 0 0 0 0 1 1 0 0 0 0 0 0 0 0 0 0 0 0 0 0 0 0 0 0 0 0
0 0 0 0 1 1 1 2 5 9 9 9 8 8 8 8 9 9 7 4 2 1 0 0 0 0 0 0 1 1 1 1 0 0 0 0 0 0 0 0 0 0 0 0 0 0 0 0 0
0 0 0 0 0 0 1 3 7 11 11 9 9 10 11 10 8 9 8 5 2 2 2 1 1 1 0 0 1 2 2 1 0 0 0 0 0 1 1 0 0 0 0 0 0 0 0 0 0
0 0 0 0 0 0 2 3 7 10 12 10 11 14 15 13 10 9 10 8 6 6 6 4 4 3 1 1 1 2 1 1 0 0 0 0 1 1 1 0 0 0 0 0 1 1 1 0 0
0 0 0 0 0 0 1 3 6 9 10 11 12 15 18 17 14 13 13 12 11 11 10 9 7 5 3 2 1 0 0 0 0 0 0 2 2 1 1 0 0 0 1 1 2 2 1 0 0
0 0 0 0 0 0 1 3 7 8 10 12 13 16 19 20 19 18 18 19 18 17 14 12 8 5 4 3 1 0 0 0 0 0 1 3 3 1 0 0 0 1 2 2 2 1 0 0 0
0 0 0 0 0 0 1 2 5 9 10 11 15 18 20 20 21 21 22 24 24 21 17 14 12 7 5 4 2 0 0 0 0 0 1 3 3 2 1 1 1 2 2 1 1 1 0 0 0
0 0 0 0 0 0 0 1 3 7 9 11 15 19 19 21 23 25 26 27 27 24 20 18 16 13 8 6 5 2 1 0 0 0 1 2 3 3 3 2 2 3 2 1 0 0 1 0 0
0 0 0 0 0 0 0 0 1 4 8 12 16 18 19 22 25 29 30 29 28 26 23 20 18 17 13 9 8 5 3 1 0 0 1 2 3 4 4 4 4 4 3 2 1 0 0 0 1
0 0 0 0 0 0 0 0 0 2 6 10 14 17 19 22 26 29 30 30 29 27 25 21 18 17 17 15 12 8 5 2 1 1 0 1 3 4 4 4 4 4 3 3 2 1 0 0 1
0 0 0 0 0 0 0 0 0 1 3 6 12 17 19 20 25 27 27 28 29 28 26 22 18 16 18 19 16 12 8 6 5 3 1 1 3 4 3 3 3 3 3 3 3 2 1 1 1
0 0 0 0 0 0 0 0 1 2 2 4 10 15 17 18 23 27 26 26 28 29 27 24 20 17 19 21 18 15 13 11 9 6 3 2 3 3 3 3 3 3 3 3 3 3 3 2 2
0 0 0 0 0 0 0 0 1 3 4 6 10 14 15 17 22 27 28 25 26 28 27 25 22 19 21 21 18 16 16 15 12 8 5 4 3 3 3 3 4 4 4 4 4 4 4 4 4
0 0 0 0 0 0 0 0 1 5 8 11 13 14 17 18 21 26 28 25 24 25 25 25 22 20 20 20 16 15 17 18 14 10 7 5 4 4 3 4 5 6 6 5 5 4 4 4 4
0 0 0 0 0 0 0 0 2 6 11 13 15 16 18 17 19 23 26 24 22 22 23 23 23 21 19 16 14 13 16 18 16 12 9 7 5 4 4 4 5 7 7 6 5 4 4 4 5
0 0 0 0 0 0 0 0 2 7 10 13 15 16 16 16 16 18 21 21 19 19 21 22 22 22 18 15 13 12 13 16 16 14 11 9 7 5 4 4 6 8 8 6 5 5 4 5 6
0 0 0 0 0 0 0 1 4 7 9 12 16 16 15 16 16 16 19 18 16 17 20 21 21 21 19 16 15 14 13 14 15 14 13 11 9 6 5 6 7 8 8 8 7 5 5 6 7
Wind_Speed
6 4 2 1 2 2 2 1 4 5 5 6 10 10 9 7 5 5 2 7 8 6 5 7 10 12 13 12 12 11 12 12 12 13 13 13 13 12 12 12 12 11 11 11 10 9 9 8 8
4 4 1 1 3 2 1 3 7 9 9 9 11 11 9 7 6 7 4 6 9 7 5 7 10 12 13 12 12 12 13 14 14 14 13 13 12 11 11 11 11 11 11 10 10 9 8 8 7
4 3 0 2 1 2 2 4 8 9 9 8 7 6 6 5 6 5 6 9 8 6 5 7 12 13 13 13 13 13 13 14 14 13 12 12 12 11 11 11 11 10 10 9 9 8 7 7 6
1 1 1 2 1 2 4 4 8 9 8 8 8 7 5 4 5 8 11 10 9 6 5 8 13 14 14 13 13 13 13 12 12 12 11 11 10 10 10 10 10 10 9 8 8 7 6 6 5
1 1 2 1 1 2 4 5 8 8 6 8 10 8 5 5 12 13 12 11 9 6 5 7 13 13 13 13 13 12 12 12 11 11 10 10 9 9 9 9 9 9 8 8 7 6 5 4 4
0 2 2 1 2 3 3 6 9 11 10 9 10 8 4 7 12 11 10 9 8 8 5 6 12 12 12 12 12 12 11 11 10 10 10 9 8 8 8 8 8 8 8 7 6 5 4 4 3
1 1 1 2 3 4 4 5 7 10 9 6 7 7 4 6 10 11 10 9 8 7 6 4 5 8 10 11 11 11 10 10 9 9 9 8 8 7 7 7 7 7 7 6 5 4 4 3 3
2 1 1 1 3 3 4 4 7 11 8 8 6 8 7 8 10 10 9 8 7 6 5 4 4 4 4 5 9 9 9 9 9 8 8 7 6 6 6 6 6 6 6 5 4 4 3 3 3
2 2 1 2 3 4 5 7 6 7 9 5 4 7 12 14 13 11 9 7 6 6 4 4 4 4 3 4 6 6 7 7 6 5 6 5 2 2 2 4 5 5 5 5 5 4 3 3 2
3 2 4 3 4 5 5 7 7 7 8 7 9 10 14 14 13 12 10 9 7 6 5 4 5 4 4 4 3 2 2 2 2 2 2 2 1 1 2 3 4 4 4 4 4 3 2 1 0
3 4 3 2 4 6 5 5 6 9 6 11 16 15 14 13 11 11 9 9 8 7 6 5 5 4 4 3 3 1 1 1 2 2 2 2 1 1 0 0 1 1 2 1 1 1 1 0 1
2 4 3 2 3 5 5 5 7 7 9 14 16 16 14 13 11 10 10 9 7 7 6 5 5 4 4 3 3 2 2 1 1 2 2 2 1 1 1 1 0 0 0 1 1 0 1 1 1
1 2 1 1 2 3 6 7 7 7 12 15 15 15 13 12 10 9 9 9 8 7 6 6 5 5 4 3 2 3 2 2 2 2 2 3 2 2 1 1 1 1 1 1 1 1 0 1 1
3 1 0 2 2 3 8 6 6 8 13 14 14 12 12 12 11 9 9 8 8 7 6 6 6 5 4 4 3 3 3 3 2 2 2 3 2 2 2 1 1 0 1 1 1 1 1 1 1
0 2 3 0 2 3 8 5 6 12 14 13 12 12 11 10 10 11 11 10 9 8 7 6 6 5 5 4 4 3 2 3 2 2 2 2 2 2 2 1 1 0 0 0 0 1 0 0 0
2 3 2 3 2 3 6 4 7 12 14 13 11 11 11 9 10 10 11 9 8 8 7 6 6 6 5 4 3 2 2 3 2 2 2 2 2 3 2 2 1 0 0 1 1 1 0 0 0
3 1 2 5 3 3 4 5 6 10 13 12 11 11 11 9 9 9 11 10 9 8 8 6 5 5 4 3 2 2 2 2 2 2 2 2 2 2 2 1 1 1 1 1 0 1 1 0 0
4 3 3 5 4 1 3 4 5 7 11 11 11 10 10 10 10 10 10 9 9 8 7 7 5 5 4 3 2 2 2 1 1 2 2 2 2 3 2 1 1 1 1 1 1 1 1 1 0
4 2 3 6 3 2 3 4 5 7 9 10 9 10 10 10 9 9 10 10 8 7 7 6 6 5 4 2 2 2 1 1 1 1 2 2 2 2 2 1 1 1 1 1 1 1 1 1 1
3 2 3 4 4 1 2 3 6 7 10 12 13 12 11 9 8 10 9 9 8 8 7 6 6 6 5 3 3 2 2 1 1 1 1 1 2 2 2 2 1 1 1 1 1 1 1 1 1
5 6 6 4 2 2 3 2 2 4 5 7 9 10 11 13 12 11 10 9 8 8 8 7 6 5 5 4 2 2 2 1 1 1 1 1 2 2 2 3 2 2 2 1 1 1 2 1 0
6 7 6 4 2 2 3 2 5 4 4 7 8 9 10 11 11 11 10 10 10 9 8 7 6 6 5 5 5 4 3 2 2 2 1 1 1 2 2 2 2 2 2 2 1 1 1 2 0
7 6 3 3 3 1 0 3 6 2 5 8 9 10 11 11 12 12 12 12 11 10 9 7 6 6 6 6 6 5 3 2 1 1 1 1 1 1 2 2 2 2 1 2 1 1 1 1 2
4 1 4 5 5 1 3 3 5 5 10 8 9 10 10 10 11 11 10 10 9 8 8 7 6 6 6 6 6 6 5 4 3 2 2 1 1 1 1 2 2 2 1 1 2 1 1 1 1
2 5 4 5 4 4 2 2 7 7 8 9 11 11 10 9 10 10 9 9 9 9 9 8 8 7 6 7 6 6 6 5 5 3 3 2 1 1 2 2 2 2 2 2 2 2 1 2 2
3 8 7 5 4 4 2 3 6 4 4 5 7 9 9 9 9 11 10 10 9 9 9 9 8 7 7 7 6 5 5 4 3 4 3 3 2 3 2 2 2 2 2 2 2 2 2 1 2
3 3 7 7 2 1 3 3 5 1 2 4 6 8 10 9 9 10 9 8 8 8 8 9 8 7 7 7 6 5 5 4 4 4 3 2 2 2 2 2 2 2 2 2 2 2 2 1 1
5 6 5 5 4 1 3 3 4 3 3 5 7 8 8 8 8 9 8 8 7 7 7 7 7 7 6 6 6 5 4 4 4 3 3 3 2 2 2 2 2 2 2 2 2 2 2 2 2
0 2 5 4 5 6 3 6 6 8 8 8 8 7 9 10 9 8 8 7 7 6 6 6 7 6 6 5 5 4 4 4 4 3 4 3 3 3 3 3 3 2 2 2 2 2 1 2 2
4 4 7 5 3 4 3 6 4 3 5 7 7 7 8 8 8 8 8 7 6 6 6 7 6 6 6 6 5 4 4 4 3 3 4 4 4 3 3 3 2 2 2 2 2 2 1 2 2
Wind_Direction
186 179 179 189 36 44 49 21 94 77 60 63 76 83 81 67 91 126 141 132 131 135 137 133 126 124 122 120 119 116 116 119 120 120 119 119 120 122 122 124 125 126 127 128 128 128 126 124 125
173 183 196 49 63 59 57 95 90 97 116 106 83 82 79 72 85 108 114 132 130 133 132 131 128 126 124 121 117 113 112 116 118 119 119 120 123 125 125 125 126 128 130 132 134 135 135 133 132
192 202 165 57 74 142 134 114 107 105 113 99 90 67 73 97 111 118 138 140 127 126 130 137 132 130 128 123 119 115 114 114 116 118 119 122 124 125 126 127 127 130 132 133 136 138 141 143 142
180 127 46 67 123 177 144 135 116 105 84 76 94 72 62 83 112 127 136 135 127 124 128 135 134 133 130 126 124 121 119 118 119 120 120 123 126 127 127 129 130 133 135 137 140 145 146 148 147
147 90 51 59 112 124 118 116 108 104 87 88 94 94 74 74 110 125 132 133 131 128 122 129 132 133 132 130 127 126 123 123 123 122 121 122 124 127 130 133 134 135 137 139 142 146 149 152 156
52 72 69 95 87 90 96 104 99 95 102 101 101 103 93 117 122 132 132 134 135 131 127 131 134 135 135 134 132 130 129 127 128 127 126 128 128 129 133 138 140 141 143 144 147 154 159 165 170
125 89 187 148 102 108 119 115 109 115 115 114 121 104 118 135 136 135 132 130 129 127 126 126 135 139 141 138 134 133 133 132 133 131 129 131 133 137 142 143 147 149 151 154 159 164 169 178 189
169 106 293 122 122 132 139 116 123 122 117 132 128 128 152 158 138 127 125 122 123 123 127 128 124 126 132 136 138 138 139 139 137 135 133 135 139 143 147 151 156 156 158 168 178 185 190 191 194
133 71 237 195 150 152 142 115 104 102 115 126 107 130 148 143 132 125 122 118 124 130 135 135 134 133 137 141 144 144 147 145 140 132 134 133 119 126 145 162 165 166 173 180 192 205 212 212 210
134 157 224 194 163 156 143 130 130 109 107 103 101 112 131 137 136 136 138 139 140 144 150 144 144 147 145 147 132 139 149 140 128 123 125 120 121 126 138 170 181 180 184 195 210 220 236 235 243
172 195 223 184 157 144 142 137 127 126 131 145 141 142 142 141 141 142 144 146 149 148 145 144 149 148 142 130 131 135 122 126 133 132 131 126 114 105 97 118 206 208 207 228 250 269 264 206 190
188 221 220 200 150 136 145 138 131 141 155 152 146 147 146 149 152 154 152 152 146 143 149 148 148 142 140 131 138 140 128 145 154 157 147 132 129 147 163 164 203 235 236 230 245 239 236 203 182
215 258 202 190 175 157 132 129 125 129 136 140 144 146 150 155 155 157 153 151 145 148 155 153 149 145 140 133 147 147 157 164 171 164 160 149 149 165 172 193 203 228 219 202 197 210 210 185 176
218 260 203 155 160 137 122 123 110 134 138 143 149 153 158 160 157 152 150 150 149 151 154 153 147 145 141 140 148 158 170 173 166 163 168 160 155 151 151 160 172 216 228 213 185 179 191 195 167
133 41 4 187 131 139 116 105 143 149 145 150 156 157 160 163 158 159 162 159 157 156 154 152 150 144 141 148 158 151 157 152 156 166 165 157 150 149 143 133 147 226 217 124 78 65 48 73 154
19 45 18 291 151 148 114 167 175 156 150 157 163 162 164 169 166 164 162 158 157 154 155 157 152 147 149 146 146 135 145 144 147 147 147 155 160 151 138 139 181 217 74 84 91 67 54 1 57
23 60 258 278 232 159 134 175 181 165 156 165 170 169 168 168 167 168 165 163 160 158 157 156 149 151 155 149 142 138 139 138 144 144 144 154 156 152 135 144 181 139 85 70 105 64 96 63 68
240 213 242 252 245 133 146 174 175 178 166 173 174 170 167 170 174 170 166 164 161 158 154 154 149 152 154 143 122 106 102 103 116 137 154 148 150 147 129 138 146 107 90 48 51 62 48 76 141
213 212 254 266 243 122 175 177 189 194 178 176 174 171 173 179 172 165 165 163 160 156 153 157 155 165 157 146 147 140 147 146 126 143 143 133 145 144 132 132 119 114 124 147 131 95 59 26 52
231 229 261 285 289 125 167 210 200 198 193 185 177 176 176 175 167 170 169 165 166 167 165 165 167 169 169 166 167 159 153 157 155 156 142 143 141 140 140 137 141 130 117 90 79 96 84 12 75
258 218 222 220 298 34 95 323 233 220 193 187 180 176 174 177 176 172 170 169 167 171 172 173 173 170 170 159 138 117 86 67 71 101 178 209 163 149 134 143 144 137 137 165 171 135 128 143 326
259 237 213 208 154 231 140 226 263 212 199 193 186 179 181 182 175 171 169 171 175 180 176 172 169 168 170 162 155 149 152 167 195 185 185 206 184 157 153 146 144 144 152 161 184 143 140 132 136
235 245 203 175 147 124 286 154 264 188 200 211 199 187 187 182 176 174 176 176 178 179 176 172 167 170 175 173 172 164 164 175 164 143 158 187 210 186 174 167 156 159 168 169 169 151 147 152 168
214 23 28 47 73 348 250 165 255 217 208 204 198 189 183 173 170 175 176 171 175 178 173 166 166 179 181 174 172 170 168 164 147 149 163 196 232 260 210 177 169 177 182 184 191 188 181 185 182
85 84 34 1 4 263 268 148 245 232 210 194 190 187 178 168 166 166 166 168 174 174 173 169 173 180 179 174 177 179 178 172 171 175 177 178 188 242 250 204 188 197 206 197 190 193 207 202 191
211 138 159 193 221 270 319 224 253 238 213 180 171 167 166 166 165 165 170 170 172 173 175 174 177 181 180 180 187 184 179 177 179 181 178 184 195 211 222 201 195 200 205 208 186 195 217 205 205
172 184 171 145 169 202 278 284 304 282 121 123 132 144 159 159 158 160 165 173 176 175 176 175 176 180 183 184 185 183 179 175 177 178 174 185 199 206 208 196 199 205 203 209 194 207 229 207 211
163 154 98 114 145 228 277 252 234 217 177 151 155 162 161 154 154 158 162 171 175 178 177 168 168 178 184 181 183 181 180 179 178 172 174 183 199 210 201 205 208 213 213 214 207 222 232 202 221
145 110 113 123 148 156 217 266 231 200 188 172 174 166 162 163 164 163 165 171 169 164 165 171 179 178 182 182 180 177 179 182 179 182 193 193 198 203 205 207 206 208 211 210 207 218 210 206 234
173 169 146 148 196 158 162 263 289 182 183 178 175 165 162 162 161 155 154 156 161 162 164 165 171 173 178 177 172 175 174 177 181 196 207 203 204 208 210 207 203 210 213 209 206 214 215 209 225